Location: Jamul
(32.7170°N, 116.8761°W)
Time: 00:14:42
(UTC+00:00)

Daily predictions for brighter satellites

Satellite Brightness Start Highest point End
(mag) Time Altitude Azimuth Time Altitude Azimuth Time Altitude Azimuth
Meteor 2-17 Rocket 4.5 01:56:25 10° S 02:02:27 64° E 02:08:29 10° NNE
PSLV R/B 4.2 02:00:36 10° NNE 02:04:31 44° E 02:08:24 10° S
USA 307 4.1 02:00:35 10° WSW 02:04:39 42° NW 02:08:43 10° NNE
Atlas Centaur 2 3.6 01:58:22 10° W 02:04:52 40° SSW 02:10:06 10° SE
Cosmos 1110 Rocket 4.0 02:02:11 10° S 02:07:26 71° ESE 02:12:45 10° NNE
Cosmos 2082 4.0 02:02:33 10° N 02:07:56 46° ENE 02:13:18 10° SE
Cosmos 1741 Rocket 4.4 02:03:33 10° N 02:08:36 43° ENE 02:13:38 10° SE
USA 306 4.4 02:06:59 10° WSW 02:10:55 35° NW 02:14:52 10° NNE
MOS 1 Rocket 4.4 02:06:30 10° N 02:11:21 56° WNW 02:16:27 10° SSW
Cosmos 1939 Rocket 3.8 02:08:11 10° S 02:11:57 51° W 02:15:43 10° NNW
Cosmos 1697 Rocket 4.0 02:06:39 10° SW 02:12:01 44° WNW 02:17:25 10° N
SAR-Lupe-1 4.5 02:09:11 10° NNE 02:12:36 40° E 02:15:59 10° S
IRS-1C Rocket 4.2 02:08:41 10° SSE 02:13:49 58° ENE 02:18:59 10° N
USA 308 4.4 02:11:04 10° WSW 02:14:59 34° NW 02:18:53 10° NNE
SL-24 R/B - RUBIN 2 4.0 02:10:29 10° NNW 02:16:01 65° ENE 02:20:50 10° SE
SL-16 R/B 3.3 02:13:00 10° SSE 02:17:22 23° E 02:21:43 10° NE
Abrixas rocket 1.6 02:16:27 10° SW 02:18:54 56° SE 02:21:03 13° ENE
Cosmos 1689 Rocket 2.0 02:18:26 10° NNE 02:21:16 57° E 02:24:05 10° S
Cosmos 1805 Rocket 3.5 02:17:45 10° S 02:22:05 77° E 02:26:27 10° N
CZ-2D R/B 4.1 02:24:08 10° S 02:27:49 52° W 02:31:32 10° NNW
SeaSat 1 3.1 02:23:14 10° NNE 02:28:06 60° WNW 02:32:56 10° SW
Cosmos 1271 Rocket 4.0 02:27:43 10° NNE 02:30:24 19° ENE 02:31:40 16° ESE
Cosmos 1461 3.4 02:30:12 10° S 02:34:38 46° ESE 02:39:10 10° NE
Cosmos 1812 4.2 02:32:30 10° NNW 02:36:07 41° W 02:39:44 10° SSW
SL-08 RB Rocket 4.3 02:34:55 10° SE 02:38:54 33° ENE 02:42:56 10° N
Cosmos 2228 Rocket 3.2 02:35:16 10° N 02:39:47 79° W 02:44:13 10° S
Cosmos 2263 Rocket 3.2 02:36:16 10° N 02:40:48 25° ENE 02:43:04 19° E
Cosmos 1242 Rocket 4.3 02:38:59 10° NNW 02:42:16 36° W 02:45:34 10° SSW
Cosmos 2154 Rocket 4.3 02:37:48 10° SSE 02:43:32 40° E 02:49:16 10° NNE
Cosmos 1666 Rocket 3.5 02:39:46 10° S 02:44:03 58° E 02:48:19 10° NNE
H-2A R/B 2.2 02:40:03 10° SSE 02:45:24 87° WSW 02:50:52 10° NNW
USA 234 4.3 02:41:54 10° NNE 02:47:57 42° NW 02:54:01 10° WSW
Cosmos 1850 Rocket 4.2 02:42:50 10° NNW 02:48:00 72° WSW 02:53:09 10° S
Cosmos 2227 Rocket 3.9 02:44:05 10° NW 02:49:10 35° WSW 02:54:14 10° SSW
ARGOS 3.1 02:45:18 10° SSE 02:50:39 70° ENE 02:56:03 10° N
Cosmos 2074 Rocket 3.9 02:45:43 10° S 02:51:59 80° E 02:58:16 10° N
Helios 1A Rocket 2.8 02:50:28 10° SSE 02:54:30 68° ENE 02:58:33 10° N
Yuri Rocket 4.4 02:46:44 10° W 02:54:35 59° S 02:58:13 23° ESE
YAOGAN 1 3.1 02:54:20 10° S 02:58:35 60° W 03:02:52 10° NNW
Cosmos 1437 2.9 02:58:13 10° N 03:00:23 43° NNE 03:00:23 43° NNE
Meteor 1-25 Rocket 4.2 02:55:31 10° S 03:01:20 82° E 03:07:07 10° N
Meteor 1-27 Rocket 4.0 02:56:15 10° NNW 03:01:43 69° W 03:07:13 10° S
Okean-O 3.2 02:57:40 10° S 03:02:00 58° W 03:06:23 10° NNW
CSL-04 Debris 4.1 02:59:33 10° SSE 03:04:57 83° ENE 03:10:24 10° N
Cosmos 2184 Rocket 4.0 02:58:54 10° S 03:05:03 83° W 03:11:15 10° N
BREEZE-M DEB (TANK) 3.4 02:59:58 10° WSW 03:07:45 53° NW 03:09:30 25° NNE
Lacrosse 5 rocket 1.2 03:04:05 10° NNW 03:08:23 69° NE 03:09:24 48° ESE
Cosmos 1932 4.5 03:02:02 10° SSW 03:08:32 90° ESE 03:15:01 10° NNE
CZ-2C R/B 2.9 03:03:54 10° N 03:09:24 72° WNW 03:14:44 10° SSW
SEDSat Delta rocket 4.0 03:05:21 10° W 03:09:50 40° SSW 03:11:31 28° SSE
COSMOS 2455 2.7 03:05:50 10° NNW 03:11:51 73° ENE 03:16:06 20° SE
CSL-04 Rocket 3.7 03:06:18 10° SSE 03:11:51 89° ENE 03:17:26 10° NNW
Cosmos 2360 Rocket 3.3 03:11:16 10° SSE 03:14:08 25° SE 03:14:08 25° SE
Cosmos 1992 Rocket 4.0 03:14:13 10° S 03:19:17 55° ESE 03:20:47 41° NE
Meteor 2-12 Rocket 4.3 03:16:13 10° S 03:22:12 70° E 03:28:13 10° NNE
TSX-5 3.8 03:21:07 10° NNW 03:24:26 59° NNW 03:24:26 59° NNW
Cosmos 1633 Rocket 3.9 03:21:57 10° SSW 03:26:13 51° W 03:30:32 10° N
Cosmos 2341 Rocket 4.1 03:22:41 10° SSE 03:28:44 49° E 03:34:45 10° NNE
Cosmos 1707 Rocket 4.2 03:24:45 10° NNW 03:29:03 55° W 03:33:17 10° S
Cosmos 962 Rocket 4.4 03:23:27 10° SSE 03:29:25 57° E 03:35:29 10° NNE
Cosmos 44 4.3 03:25:01 10° NW 03:30:16 51° WSW 03:34:45 13° S
ERBS 4.4 03:35:32 10° W 03:38:15 23° NW 03:38:21 23° NW
Cosmos 2322 Rocket 2.2 03:35:43 10° SSW 03:41:18 75° WNW 03:45:07 21° NNE
Cosmos 968 Rocket 4.4 03:36:15 10° N 03:39:31 35° NNE 03:39:31 35° NNE
SME Rocket 4.1 03:34:18 10° NNE 03:42:34 90° WNW 03:47:52 10° SSW
Cosmos 2227 4.2 03:44:13 10° NNW 03:50:00 83° WSW 03:50:39 70° S
Atlas Centaur 2 4.5 03:51:04 10° WSW 03:52:55 11° SW 03:54:38 10° SSW
CZ-3 Stage 3 4.4 03:50:24 10° W 03:52:00 20° WSW 03:52:00 20° WSW
SL-16 R/B 3.5 03:55:54 10° SW 04:01:08 38° WNW 04:06:25 10° N
Ariane Rocket 4.5 04:04:20 28° NNW 04:04:20 28° NNW 04:06:40 10° NNW
Cosmos 2263 Rocket 3.5 04:19:42 10° NW 04:24:42 35° WSW 04:24:51 35° WSW
